This demonstration page uses our WeatherBlox Daily Observations layout. Learn more.

Left ArrowRight Arrow

44.8408, -93.29828

Hourly Observations for January 18, 2022

Temp ( °F °C ) Dew Point ( °F °C ) Humidity (%) Winds ( mph kmh ) Pressure ( in mb ) Visibility ( mi km ) Precip ( " mm )
12:53 am 00:53 Partly Cloudy 24 -4.4 21 -6.1 88 88 SSE 7 11 29.82 1010 10 16 0.00 0.00
1:53 am 01:53 Mostly Clear 22 -5.6 19 -7.2 89 89 SE 8 13 29.80 1009 7 11 0.00 0.00
2:53 am 02:53 Cloudy 23 -5 20 -6.7 88 88 ESE 8 13 29.77 1008 9 14 0.00 0.00
3:53 am 03:53 Cloudy 25 -3.9 22 -5.6 88 88 SSE 8 13 29.73 1007 10 16 0.00 0.00
4:53 am 04:53 Mostly Cloudy 25 -3.9 22 -5.6 88 88 SSE 7 11 29.71 1006 10 16 0.00 0.00
5:53 am 05:53 Cloudy 27 -2.8 23 -5 85 85 SSE 9 15 29.69 1005 10 16 0.00 0.00
6:53 am 06:53 Cloudy 27 -2.8 23 -5 85 85 SSE 10 17 29.66 1004 10 16 0.00 0.00
7:53 am 07:53 Mostly Cloudy 28 -2.2 23 -5 81 81 SSE 13 20 29.62 1003 9 14 0.00 0.00
8:53 am 08:53 Mostly Cloudy 27 -2.8 23 -5 85 85 SE 12 19 29.60 1002 8 13 0.00 0.00
9:53 am 09:53 Mostly Cloudy 30 -1.1 24 -4.4 79 79 SSE 12 19 29.57 1001 8 13 0.00 0.00
10:53 am 10:53 Mostly Cloudy 32 0 25 -3.9 75 75 S 9 15 29.56 1001 9 14 0.00 0.00
11:53 am 11:53 Mostly Cloudy 34 1.1 26 -3.3 73 73 S 7 11 29.52 1000 10 16 0.00 0.00
12:53 pm 12:53 Mostly Sunny 37 2.8 27 -2.8 67 67 SW 12 19 29.50 999 10 16 0.00 0.00
1:53 pm 13:53 Mostly Sunny 39 3.9 27 -2.8 62 62 SW 13 20 29.48 998 10 16 0.00 0.00
2:53 pm 14:53 Mostly Sunny 42 5.6 29 -1.7 60 60 W 13 20 29.49 999 10 16 0.00 0.00
3:53 pm 15:53 Partly Cloudy 42 5.6 30 -1.1 62 62 W 15 24 29.50 999 10 16 0.00 0.00
4:24 pm 16:24 Mostly Cloudy 39 3.9 29 -1.7 67 67 WNW 20 31 29.55 1001 10 16 0.00 0.00
4:53 pm 16:53 Cloudy 35 1.7 28 -2.2 76 76 W 17 28 29.58 1002 10 16 0.00 0.00
5:46 pm 17:46 Cloudy 32 0 25 -3.9 75 75 WNW 22 35 29.64 1004 10 16 0.00 0.00
5:53 pm 17:53 Cloudy 32 0 24 -4.4 73 73 WNW 21 33 29.64 1004 10 16 0.00 0.00
6:48 pm 18:48 Cloudy 28 -2 19 -7 69 69 WNW 21 33 29.72 1007 10 16 0.00 0.00
6:53 pm 18:53 Cloudy 28 -2.2 20 -6.7 72 72 WNW 22 35 29.70 1006 10 16 0.00 0.00
7:39 pm 19:39 Mostly Cloudy 23 -5 15 -9.4 72 72 WNW 18 30 29.78 1009 10 16 0.00 0.00
7:53 pm 19:53 Partly Cloudy 22 -5.6 13 -10.6 68 68 NW 25 41 29.77 1008 10 16 0.00 0.00
8:53 pm 20:53 Mostly Clear 18 -7.8 8 -13.3 65 65 WNW 18 30 29.82 1010 10 16 0.00 0.00
9:53 pm 21:53 Mostly Clear 15 -9.4 4 -15.6 61 61 WNW 17 28 29.87 1012 10 16 0.00 0.00
10:45 pm 22:45 Mostly Clear 12 -11.1 2 -16.7 64 64 WNW 18 30 29.98 1015 10 16 0.00 0.00
10:53 pm 22:53 Mostly Clear 11 -11.7 1 -17.2 64 64 WNW 25 41 29.93 1014 10 16 0.00 0.00
11:53 pm 23:53 Mostly Clear 9 -12.8 0 -17.8 66 66 WNW 17 28 29.97 1015 10 16 0.00 0.00

Powered by AerisWeather